User: anonymous   Login
Location: Estes Par
(40.3770°N, 105.5210°W)
Time: 02:26:25
(UTC-07:00)
Language:

Envisat - Orbit

View from above orbital plane
View from above orbital plane
View from above satellite
View from above satellite

Ground track
Ground track

The orbit data is extracted from the following two-line orbital elements,

1 27386U 02009A   17346.73554400 -.00000021  00000-0  66924-5 0  9992
2 27386  98.2097  24.3475 0001517  83.5573 276.5773 14.37910532826731
Epoch (UTC): 12 December 2017 17:39:11
Eccentricity: 0.0001517
inclination: 98.2097°
perigee height: 764 km
apogee height: 766 km
right ascension of ascending node: 24.3475°
argument of perigee: 83.5573°
revolutions per day: 14.37910532
mean anomaly at epoch: 276.5773°
orbit number at epoch: 82673

The dashed part of the orbit path shows where the satellite is in the earth's shadow,  

DLR